Regional Weather Roundup
Issued by NWS Newport/Morehead, NC

Current Version | Previous Version | Graphics & Text | Print | Product List | Glossary Off
Versions: 1 2 3 4 5 6 7 8 9 10 11 12 13 14 15 16 17 18 19 20 21 22 23 24 25 26 27 28 29 30 31 32 33 34 35 36 37 38 39 40 41 42 43 44 45 46 47 48 49 50

000
ASUS42 KMHX 201013
RWRMHX
WEATHER ROUNDUP FOR EASTERN NORTH CAROLINA
NATIONAL WEATHER SERVICE NEWPORT/MOREHEAD CITY NC
500 AM EST FRI JAN 20 2017

NOTE: "FAIR" INDICATES FEW OR NO CLOUDS BELOW 12,000 FEET
WITH NO SIGNIFICANT WEATHER AND/OR OBSTRUCTIONS TO VISIBILITY

NCZ015>017-031-032-045>047-102-103-201100-
NORTH COAST

CITY           SKY/WX    TMP DP  RH WIND       PRES   REMARKS
EDENTON        CLOUDY    45  42  87 CALM      29.99F
ELIZABETH CITY CLOUDY    44  43  96 S3        29.99F
KITTY HAWK     NOT AVBL
MANTEO         CLOUDY    43  43 100 CALM      30.00S

$$

NCZ045>047-081-094-103-104-201100-
CENTRAL COAST

CITY           SKY/WX    TMP DP  RH WIND       PRES   REMARKS
FRISCO         PTCLDY    48  43  82 NE7       30.00F

$$

NCZ095-097-098-100-101-201100-
SOUTHERN COAST

CITY           SKY/WX    TMP DP  RH WIND       PRES   REMARKS
BEAUFORT       CLOUDY    48  46  93 NE3       29.96F
CEDAR ISLAND   NOT AVBL
JACKSONVILLE   CLOUDY    48  47  96 CALM      29.94F
PINEY ISLAND   CLOUDY   N/A N/A N/A E7        29.97F
WILMINGTON     MOCLDY    53  51  93 E5        29.93F


$$

NCZ011>013-027>030-043-044-078>080-089-090>093-098-201100-
COASTAL PLAIN

CITY           SKY/WX    TMP DP  RH WIND       PRES   REMARKS
AHOSKIE          N/A     42  41  97 CALM      29.98S FOG
CLINTON        CLOUDY    48  46  91 CALM      29.95S
ELIZABETHTOWN  CLOUDY    48  46  95 CALM      29.93S
GOLDSBORO      CLOUDY    45  45 100 E6        29.92F
GREENVILLE     MOCLDY    43  43 100 CALM      29.98F
HAVELOCK       CLOUDY    46  44  93 CALM      29.97F
KENANSVILLE    CLOUDY    41  41 100 CALM      29.94F FOG
KINSTON        CLOUDY    44  43  94 CALM      29.97S
NEW BERN       CLOUDY    44  43  96 CALM      29.97F
RICHLANDS      CLOUDY    44  43  96 NE3       29.95F
ROCKY MOUNT    CLOUDY    43  43 100 CALM      29.96S
WASHINGTON     CLOUDY    43  41  93 CALM        N/A
WHITEVILLE     CLOUDY    51  47  87 CALM      29.91F

$$

AMZ130-135-150-152-154-156-158-170-250-252-270-ANZ085-086-088-633-658-670-201100-
MARINE OBSERVATIONS

STATION/POSITION TIME  TEMP    WIND        PRES    WAVE   SWELL
                       AIR SEA DIR/SP/G            HT/PER HT/PER
                 (UTC) (F)     (DEG/KT/KT) (MB)    (FT/S) (FT/S)
CHESAPEAKE LIGHT NOT AVBL
64 E VA BEACH    0950   51 56  130/  2/  4 1015.3    5/13   5/13
DUCK             0948   45 45  150/  4/  4 1015.0
2 E DUCK         0930      45                N/A     4/11   3/11
OREGON INLET     0942   45 49   CALM  /  1 1015.8
13E OREGON INLT  NOT AVBL
HATTERAS CG      0948           50/  4/  6 1015.2
DIAMOND BUOY     0950   58 76   50/  4/  8 1015.4    6/11   5/11
CAPE LOOKOUT     0900   53      10/  5/  5 1014.7
BEAUFORT LAB     0948           30/  5/  6 1013.4
30 SE NEW RVR IN 0908   61 64   90/  8/ 10 1014.5
30 SE NEW RVR IN 0943      63                N/A     3/ 8
27 SE WRIGHTSVLE 0908   65 71  100/ 10/ 16 1013.4
5 SE WRIGHTSVLE  0908   57      80/  6/ 10 1013.8
225 S CAPE HAT   0950   68 71  200/  6/  8 1015.5    5/ 9   5/ 9
41 SE CHARLESTON 0850   69 72   60/  2/  2 1012.8    3/10   2/10

$$




USA.gov is the U.S. government's official web portal to all federal, state and local government web resources and services.